GSAT0205 (GALILEO 9)

Last updated on Sun Apr 12 2026 00:02:39 GMT+0000 (Coordinated Universal Time)

1 40889U 15045A 26100.69962983 .00000003 00000+0 00000+0 0 9996 2 40889 54.9681 223.5720 0004433 268.6997 91.2255 1.67410788 65834
UTC large
Height (km)
Speed (km/s)
/
Latitude / Longitude
Inclination (degrees)
Orbital Period (minutes)
Azimuth
Elevation
Range (km)
Doppler Factor

Next 0 passes for location: London (51.5072 / 0.1276)

Sorry there are no passes over London.
GSAT0205 (GALILEO 9)